www.pogodaiklimat.ru

АРХИВ ПОГОДЫ в Оклахома-Сити

Время (UTC), дата Ветер
(напр.,м/с)
 
Видим.   Явления Облачность Т
(С)
Тd
(С)
f
(%)
Тe
(С)
Тes
(С)
Комфортность

P
(гПа)

Po
(гПа)
Тmin
(С)
Tmax
(С)
R
(мм)
SD
(см)
05:52 17.08 Ю  16 км    ясно  +27.2  +20.0  65  +33  +33  очень
душно 
1009.1  964.7         
06:52 17.08 Ю  16 км    5/0 6000 м
[средняя] 
+25.6  +20.6  74  +32  +32  очень
душно 
1009.5  965.0         
07:52 17.08 З  16 км    5/0 3300 м
[средняя] 
+26.1  +20.6  72  +33  +33  очень
душно 
1009.8  965.3         
08:52 17.08 Ю  16 км    2/0 3900 м
[средняя] 
+25.0  +21.1  79  +32  +32  очень
душно 
1008.5  964.0         
09:52 17.08 Ю  16 км    2/0 4500 м
[средняя] 
+25.0  +21.1  79  +32  +32  очень
душно 
1008.6  964.0         
10:52 17.08 Ю  16 км    8/0 4500 м
[средняя] 
+25.0  +21.7  82  +32  +32  очень
душно 
1009.4  965.0  +24.4  +27.8     
11:52 17.08 Ю  16 км    8/0 3900 м
[средняя] 
+25.6  +22.2  82  +33  +33  очень
душно 
1009.3  964.7         
12:52 17.08 Ю  16 км    5/0 4200 м
[средняя] 
+27.2  +22.2  74  +35  +36  очень
душно 
1009.9  965.3         
13:52 17.08 Ю  16 км    2/0 3900 м
[средняя верхняя] 
+27.8  +22.8  74  +37  +38  очень
душно 
1009.7  965.0         
14:52 17.08 Ю  8
{10} 
16 км    2/0 3300 м
[средняя верхняя] 
+32.2  +22.2  56  +41  +42  опасность
перегрева 
1009.3  964.7         
15:52 17.08 Ю  8
{11} 
16 км    2/0 6000 м
[средняя верхняя] 
+33.9  +21.7  49  +42  +43  опасность
перегрева 
1008.5  964.0         
16:52 17.08 Ю  16 км    2/0 6000 м
[средняя верхняя] 
+35.0  +21.7  46  +43  +46  опасность
перегрева 
1008.0  963.7  +25.0  +35.0     
17:52 17.08 Ю  4
{9} 
16 км    2/0 5400 м
[средняя верхняя] 
+36.1  +21.1  42  +43  +52  опасность
перегрева 
1007.6  963.4         
18:52 17.08 Ю  16 км    2/0 4200 м
[средняя верхняя] 
+37.2  +21.1  39  +44  +49  опасность
перегрева 
1006.9  962.8         
19:52 17.08 Ю  7
{11} 
16 км    8/2 1500 м
[средняя верхняя] 
+37.2  +21.1  39  +44  +45  опасность
перегрева 
1006.1  961.8         
20:52 17.08 Ю  7
{13} 
16 км    5/2 1950 м
[средняя верхняя] 
+36.7  +20.6  39  +43  +44  опасность
перегрева 
1005.6  961.5         
21:52 17.08 Ю  9
{13} 
16 км    2/2 1950 м  +36.1  +20.6  41  +43  +43  опасность
перегрева 
1005.6  961.1         
22:52 17.08 Ю  9
{13} 
16 км    5/2 1950 м
[средняя верхняя] 
+34.4  +20.6  45  +41  +41  опасность
перегрева 
1004.9  960.8  +34.4  +37.2     
23:52 17.08 Ю  6
{11} 
16 км    5/0 3600 м
[средняя верхняя] 
+32.8  +21.1  50  +40  +40  очень
душно 
1004.9  960.5         
00:52 18.08 Ю  16 км    8/0 2100 м
[средняя] 
+31.7  +21.1  53  +39  +39  очень
душно 
1005.7  961.5         
01:52 18.08 Ю  16 км    10/0 4500 м
[средняя] 
+31.1  +21.1  55  +39  +39  очень
душно 
1006.5  962.1         
02:49 18.08 Ю  13
{17} 
16 км  гроза  10/8 900 м
[средняя] 
+31.0  +22.0  59  +40  +40  очень
душно 
  962.1         
02:52 18.08 Ю  13
{17} 
16 км  гроза  10/8 900 м
[средняя] 
+30.6  +21.7  59  +39  +39  очень
душно 
1005.9  961.8         
03:16 18.08 ЮЗ  9
{20} 
11 км  гроза со слабым дождем  10/5 1800 м
[средняя] 
+24.4  +21.1  82  +31  +31  очень
душно 
  963.1         
03:52 18.08 Ю  18
{24} 
16 км  гроза  10/5 1800 м
[средняя] 
+22.8  +19.4  81  +29  +29  очень
душно 
1005.5  961.1         
04:52 18.08 Ю  13
{17} 
16 км  гроза  8/2 1800 м
[средняя] 
+28.3  +18.3  55  +33  +33  очень
душно 
1006.0  961.8  +22.2  +35.0  0.8   
05:21 18.08 Ю  13
{19} 
16 км    8/0 4500 м
[средняя] 
+26.7  +21.1  71  +34  +34  очень
душно 
  961.8         
05:52 18.08 Ю  16 км    5/0 4500 м
[средняя] 
+25.0  +20.6  77  +31  +31  очень
душно 
1006.1  961.8         
06:52 18.08 Ю  9
{13} 
16 км    5/0 4500 м
[средняя] 
+24.4  +20.0  76  +30  +30  очень
душно 
1006.3  962.1         
07:52 18.08 Ю  16 км    2/0 4500 м
[средняя] 
+23.9  +19.4  76  +29  +29  душно  1007.0  962.8         
08:52 18.08 Ю  16 км    8/0 4500 м
[средняя] 
+22.2  +20.0  87  +28  +28  душно  1006.9  962.4         
09:52 18.08 ЮВ  16 км    8/0 4500 м
[средняя] 
+23.9  +20.6  82  +30  +30  очень
душно 
1007.9  963.4         
10:52 18.08 В  16 км    8/0 4500 м
[средняя] 
+25.0  +21.1  79  +32  +32  очень
душно 
1008.9  964.4  +22.2  +28.3     
11:52 18.08 ЮВ  16 км    8/0 3000 м
[средняя] 
+25.6  +21.7  79  +33  +33  очень
душно 
1009.4  964.7         
12:08 18.08 ЮВ  16 км  гроза  5/0 3300 м
[средняя] 
+26.1  +21.7  77  +34  +34  очень
душно 
  965.0         
12:41 18.08 ЮВ  16 км    8/0 3300 м
[средняя] 
+26.1  +21.7  77  +34  +34  очень
душно 
  965.0         
12:52 18.08 ЮВ  16 км    8/0 3300 м
[средняя] 
+26.1  +21.7  77  +34  +34  очень
душно 
1009.4  964.7         
13:52 18.08 ЮВ  8 км  дождь  8/2 1020 м
[средняя] 
+25.6  +22.8  85  +34  +35  очень
душно 
1010.5  966.0         
14:52 18.08 В  16 км    8/2 1200 м
[средняя] 
+25.6  +22.8  85  +34  +35  очень
душно 
1011.3  966.6         
15:01 18.08 В  16 км  гроза со слабым дождем  8/5 630 м
[средняя] 
+25.0  +22.8  88  +33  +34  очень
душно 
  966.6         
15:40 18.08 В  16 км  гроза  8/2 750 м
[средняя] 
+26.7  +24.4  87  +37  +39  очень
душно 
  966.6         
15:52 18.08 ЮВ  16 км    5/0 3000 м
[средняя] 
+27.2  +24.4  85  +38  +40  очень
душно 
1011.3  966.3         
16:52 18.08 ЮВ  9
{12} 
16 км    2/0 4500 м
[средняя верхняя] 
+29.4  +24.4  75  +42  +42  опасность
перегрева 
1009.9  965.3  +24.4  +29.4  0.8   
17:52 18.08 ЮВ  8
{10} 
16 км    2/2 810 м
[средняя] 
+32.2  +24.4  63  +44  +46  опасность
перегрева 
1009.4  964.7         
18:52 18.08 Ю  7
{11} 
16 км    5/2 990 м
[средняя] 
+32.2  +23.9  62  +44  +46  опасность
перегрева 
1009.1  964.4         
19:52 18.08 Ю  8
{11} 
16 км    5/5 1200 м
[средняя] 
+34.4  +23.9  54  +46  +47  опасность
перегрева 
1008.6  964.0         
20:52 18.08 ЮВ  6
{10} 
16 км    5/2 1200 м
[средняя] 
+35.0  +23.3  51  +46  +48  опасность
перегрева 
1008.4  963.7         
21:52 18.08 ЮВ  16 км    5/2 1500 м
[средняя верхняя] 
+35.0  +21.7  46  +43  +44  опасность
перегрева 
1008.2  963.7         

 

Местоположение метеостанции Will Rogers World Airport: широта 35.3886 долгота -97.6003 высота над уровнем моря 394 м.

В архиве по умолчанию представлена погода в Оклахома-Сити за последние 1-2 суток. Обновление информации о фактической погоде в базе происходит ежечасно! Архивные данные за месяц целиком и за предыдущие месяцы Вы можете получить, выбрав интересующий диапазон дат из раскрывающегося списка и нажав кнопку "Ввод!".

Внимание! Архив погоды МЕТАР в базе сайта в настоящее время начинается c 1 января 2011 г. Нет смысла пытаться выбрать более раннюю дату.

Внимание! Время в таблицах - всемирное. Для получения местного времени необходимо прибавить поправку, которая в Оклахома-Сити равна -6 ч.

Ветер - указаны скорость ветра в м/с и направление, откуда дует ветер: С - северный, СВ - северо-восточный, В - восточный, ЮВ - юго-восточный, Ю - южный, ЮЗ - юго-западный, З - западный, СЗ - северо-западный.
Видимость - горизонтальная дальность видимости в метрах или километрах. При видимости от 1 до 10 км при отсутствии осадков обычно наблюдается дымка, при ухудшении видимости до 1 км и менее - туман. В сухую погоду видимость может ухудшаться дымом, пылью или мглою.
Атмосферные явления - указаны явления, наблюдавшиеся в указанный момент времени.
Облачность - указаны через наклонную черту верхняя и нижняя облачность в баллах и высота нижней границы облаков в метрах. Внимание: облачность, как и прочие метеорологические величины в США измеряются автоматическими метеостанциями. Указанные значения в баллах носят условный характер и показывают процент времени, в течение которого, в среднем, лазерный луч высотомера отражался от облаков обратно.
T - Температура воздуха - температура, измеренная на высоте 2 м над землей.
Td - Температура точки росы - температура, при понижении до которой содержащийся в воздухе водяной пар достигнет насыщения.
f - Относительная влажность воздуха - влажноcть воздуха, измеренная на высоте 2 м над землей.
Te - Эффективная температура - температура, которую ощущает одетый по сезону человек в тени. Характеристика душности погоды. При расчете учитывается влияние влажности воздуха и скорости ветра на теплоощущения человека.
Tes - Эффективная температура на солнце - температура, которую ощущает человек, с поправкой на солнечный нагрев. Характеристика знойности погоды. Зависит от высоты солнца над горизонтом, облачности и скорости ветра. Ночью, в пасмурную погоду, а также при ветре 12 м/с и более поправка равна нулю.
P - Атмосферное давление - приведенное к уровню моря атмосферное давление.
Po - Атмосферное давление - измеренное на уровне метеостанции атмосферное давление.
Tmin - Минимальная температура - минимум температуры воздуха на высоте 2 м над землей.
Tmax - Максимальная температура - максимум температуры воздуха на высоте 2 м над землей.
R - Количество осадков - Количество выпавших осадков за 3 или 6 часов, мм.
SD - Снежный покров - Высота снежного покрова, см.